Eagle, AK

1:36 PM AKST on November 22, 2017 (GMT -0900)
Eagle

Weather History for PAEG - July, 2013

Change the Weather History Date:

Sunday, July 14, 2013

  Actual Average (PABN) Record (PABN)
Temperature  
Mean Temperature 62 °F -  
Max Temperature 86 °F 61 °F 77 °F (1999)
Min Temperature 39 °F 51 °F 44 °F (2001)
Degree Days  
Heating Degree Days 2    
Growing Degree Days 12 (Base 50)    
Moisture  
Dew Point 42 °F    
Average Humidity 45    
Maximum Humidity 83    
Minimum Humidity 22    
Precipitation  
Precipitation 0.00 in - - ()
Sea Level Pressure  
Sea Level Pressure 30.05 in    
Wind  
Wind Speed 2 mph (NNE)    
Max Wind Speed 9 mph    
Max Gust Speed -    
Visibility 10 miles    
Events      
Averages and records for this station are not official NWS values.
T = Trace of Precipitation, MM = Missing Value Source: NWS Daily Summary

Daily Weather History Graph

Daily Weather History Graph

Search for Another Location

Airport or City:

Trip Planner

Search our weather history database for the weather conditions in past years. The results will help you decide how hot, cold, wet, or windy it might be!

Date:

Astronomy

Jul. 14, 2013 Rise Set
Actual Time 3:25 AM AKDT 11:33 PM AKDT
Civil Twilight Sun does not rise Sun does not rise
Nautical Twilight Sun does not rise Sun does not rise
Astronomical Twilight Sun does not rise Sun does not rise
Moon 1:04 PM AKDT (7/14) 11:28 PM AKDT (7/14)
Length of Visible Light 24h 00m
Length of Day
20h 07m
Waxing Crescent, 36% of the Moon is Illuminated
Jul 14
Waxing Crescent
Jul 15
First Quarter
Jul 22
Full
Jul 29
Last Quarter
Aug 6
New

Hourly Weather History & Observations

Time (AKDT) Temp. Dew Point Humidity Pressure Visibility Wind Dir Wind Speed Gust Speed Precip Events Conditions
12:53 AM 46.9 °F 36.0 °F 66% 30.05 in 10.0 mi Calm Calm - N/A   Clear
1:53 AM 43.0 °F 36.0 °F 76% 30.07 in 10.0 mi Calm Calm - N/A   Clear
2:53 AM 41.0 °F 35.1 °F 79% 30.06 in 10.0 mi Calm Calm - N/A   Clear
3:53 AM 39.0 °F 34.0 °F 82% 30.08 in 10.0 mi Calm Calm - N/A   Clear
4:53 AM 39.9 °F 35.1 °F 83% 30.09 in 10.0 mi Calm Calm - N/A   Clear
5:53 AM 46.9 °F 37.9 °F 71% 30.09 in 10.0 mi Calm Calm - N/A   Clear
6:53 AM 54.0 °F 42.1 °F 64% 30.09 in 10.0 mi Calm Calm - N/A   Clear
7:53 AM 59.0 °F 42.1 °F 53% 30.09 in 10.0 mi Calm Calm - N/A   Clear
8:53 AM 63.0 °F 42.1 °F 46% 30.09 in 10.0 mi Calm Calm - N/A   Clear
9:53 AM 70.0 °F 44.1 °F 39% 30.08 in 10.0 mi ENE 6.9 mph - N/A   Clear
10:53 AM 75.0 °F 42.1 °F 31% 30.07 in 10.0 mi Variable 4.6 mph - N/A   Clear
11:53 AM 77.0 °F 43.0 °F 30% 30.06 in 10.0 mi NNE 5.8 mph - N/A   Clear
12:53 PM 80.1 °F 43.0 °F 27% 30.06 in 10.0 mi Calm Calm - N/A   Clear
1:53 PM 82.9 °F 45.0 °F 26% 30.05 in 10.0 mi Variable 3.5 mph - N/A   Clear
2:53 PM 84.9 °F 46.0 °F 26% 30.04 in 10.0 mi NE 6.9 mph - N/A   Clear
3:53 PM 86.0 °F 45.0 °F 24% 30.02 in 10.0 mi NNE 8.1 mph - N/A   Partly Cloudy
4:53 PM 86.0 °F 43.0 °F 22% 30.01 in 10.0 mi NNE 8.1 mph - N/A   Clear
5:53 PM 86.0 °F 43.0 °F 22% 30.00 in 10.0 mi North 6.9 mph - N/A   Clear
6:53 PM 84.9 °F 42.1 °F 22% 30.00 in 10.0 mi NNE 9.2 mph - N/A   Clear
7:53 PM 84.0 °F 42.1 °F 23% 30.00 in 10.0 mi North 5.8 mph - N/A   Clear
8:53 PM 82.9 °F 43.0 °F 24% 30.01 in 10.0 mi North 3.5 mph - N/A   Clear
9:53 PM 78.1 °F 45.0 °F 31% 30.01 in 10.0 mi Calm Calm - N/A   Clear
10:53 PM 64.0 °F 46.0 °F 52% 30.02 in 10.0 mi Calm Calm - N/A   Clear
11:53 PM 60.1 °F 45.0 °F 57% 30.04 in 10.0 mi Calm Calm - N/A   Clear